Powrót do katalogu

FENGYUN 1C DEB

AktywnyPO
NORAD 31966·DEBRIS·🇨🇳 China

Wystrzelony May 10, 1999 z Taiyuan Satellite Launch Center

Loading…

Następne Przeloty (najbliższe 24 godziny)

TLE

Starzejące sięSource: Space-Track

Epoka: Sep 9, 2026, 18:29 UTC

1 31966U 99025CNT 26252.77061359  .00004081  00000-0  64444-3 0  9993
2 31966  99.0367  78.8392 0082036 156.1202 204.3841 14.70776718697231

Śledź FENGYUN 1C DEB w czasie rzeczywistym z AllMySat

Download on the App Store